User: anonymous   Login
Location: Caltech
(34.1382°N, 118.1253°W)
Time: 14:20:21
(UTC-07:00)
Language:

Cosmos 676 Rocket - Orbit

View from above orbital plane
View from above orbital plane
View from above satellite
View from above satellite

Ground track
Ground track

The orbit data is extracted from the following two-line orbital elements,

1 07434U 74071B   14296.31905481  .00000337  00000-0  12404-3 0  3463
2 07434 074.0483 191.1356 0021383 337.9502 162.2816 14.36305104 97737
Epoch (UTC): 23 October 2014 07:39:26
Eccentricity: 0.0021383
inclination: 74.0483°
perigee height: 755 km
apogee height: 786 km
right ascension of ascending node: 191.1356°
argument of perigee: 337.9502°
revolutions per day: 14.36305104
mean anomaly at epoch: 162.2816°
orbit number at epoch: 9773

The dashed part of the orbit path shows where the satellite is in the earth's shadow,  

DLR